Regional Weather Roundup
Issued by NWS

Home | Current Version | Previous Version | Graphics & Text | Print | Product List | Glossary On
Versions: 1 2 3 4 5 6 7 8 9 10 11 12 13 14 15 16 17 18 19 20 21 22 23 24 25 26 27 28 29 30 31 32 33 34 35 36 37 38 39 40 41 42 43 44 45 46 47 48 49 50
000
ASUS43 KIND 291159
RWRIN

WEATHER ROUNDUP FOR INDIANA
NATIONAL WEATHER SERVICE INDIANAPOLIS IN
800 AM EDT FRI APR 29 2016

NOTE: "FAIR" INDICATES FEW OR NO CLOUDS BELOW 12,000 FEET WITH NO
SIGNIFICANT WEATHER AND/OR OBSTRUCTIONS TO VISIBILITY.

* - STATION DOES NOT REPORT WEATHER SUCH AS PRECIPITATION OR FOG.

+ - STATION NOT QUALITY CONTROLLED BY THE NATIONAL WEATHER SERVICE.
    USE DATA WITH CAUTION...ESPECIALLY DEWPOINT AND RELATIVE
    HUMIDITY OBSERVATIONS.

INZ001>003-010>013-019-020-291300-
NORTHWEST INDIANA

CITY           SKY/WX    TMP DP  RH WIND       PRES   REMARKS
GARY /AIRPORT/ CLOUDY    45  45 100 N5        30.08R FOG
RENSSELAER +   CLOUDY    46  46 100 NW5       30.06R FOG

$$

LMZ046-743>745-291300-
SOUTHERN LAKE MICHIGAN

STATION/POSITION TIME  TEMP    WIND        PRES    WAVE
                       AIR SEA DIR/SP/G            HT
                 (UTC) (F)     (DEG/KT/KT) (MB)    (FT)
BURNS HARBOR     1116   43     310/ 13/ 16 1018.3R

$$

INZ004-005-014>016-021>024-291300-
NORTH CENTRAL INDIANA

CITY           SKY/WX    TMP DP  RH WIND       PRES   REMARKS
ELKHART        CLOUDY    46  41  81 CALM      30.05R
GOSHEN         CLOUDY    46  39  76 S5        30.04R
6HR MIN TEMP:  46; 6HR MAX TEMP:  47;

SOUTH BEND     CLOUDY    46  40  79 S5        30.05R
6HR MIN TEMP:  46; 6HR MAX TEMP:  47;


$$

INZ006>009-017-018-025>027-291300-
NORTHEAST INDIANA

CITY           SKY/WX    TMP DP  RH WIND       PRES   REMARKS
ANGOLA *+      CLOUDY    45  32  61 E6        30.03R
FORT WAYNE     CLOUDY    46  39  76 E3        30.04R
6HR MIN TEMP:  45; 6HR MAX TEMP:  47;


$$

INZ028-029-035-036-043>045-051>053-291300-
WEST CENTRAL INDIANA

CITY           SKY/WX    TMP DP  RH WIND       PRES   REMARKS
CRAWFORDSVL +  SUNNY     47  47 100 NW3       30.05S FOG
6HR MIN TEMP:  45; 6HR MAX TEMP:  50;

GREENCASTLE +  SUNNY     50  50 100 W5        30.05R
LAFAYETTE      FOG       46  46 100 NW7       30.05R VSB 1/4
6HR MIN TEMP:  44; 6HR MAX TEMP:  55;

TERRE HAUTE    SUNNY     51  48  89 CALM      30.05S
6HR MIN TEMP:  46; 6HR MAX TEMP:  54;


$$

INZ030>032-037>040-046>048-054>057-064-065-291300-
CENTRAL INDIANA

CITY           SKY/WX    TMP DP  RH WIND       PRES   REMARKS
COLUMBUS       SUNNY     50  50 100 W5        30.04R
INDIANAPOLIS   MOSUNNY   51  47  86 W7        30.03R
6HR MIN TEMP:  49; 6HR MAX TEMP:  55;

-EAGLE CREEK   SUNNY     52  49  89 NW7       30.03R
6HR MIN TEMP:  51; 6HR MAX TEMP:  56;

KOKOMO *+      CLOUDY    48  45  87 CALM      30.03R
6HR MIN TEMP:  46; 6HR MAX TEMP:  48;

SHELBYVILLE    CLOUDY    54  49  83 W8        30.03R
6HR MIN TEMP:  52; 6HR MAX TEMP:  57;


$$

INZ033-034-041-042-049-050-058-059-291300-
EAST CENTRAL INDIANA

CITY           SKY/WX    TMP DP  RH WIND       PRES   REMARKS
MUNCIE         CLOUDY    50  45  83 NE3       30.03R HAZE
6HR MIN TEMP:  48; 6HR MAX TEMP:  50;


$$

INZ060-061-067>069-081>083-085>088-291300-
SOUTHWEST INDIANA

CITY           SKY/WX    TMP DP  RH WIND       PRES   REMARKS
EVANSVILLE     SUNNY     54  51  90 N3        30.05F
6HR MIN TEMP:  51; 6HR MAX TEMP:  61;

HUNTINGBURG *+ SUNNY     52  48  87 CALM      30.05F
6HR MIN TEMP:  50; 6HR MAX TEMP:  57;


$$

INZ062-063-066-070>080-084-089>092-291300-
SOUTH CENTRAL AND SOUTHEAST INDIANA

CITY           SKY/WX    TMP DP  RH WIND       PRES   REMARKS
BLOOMINGTON    SUNNY     50  47  89 CALM      30.05R
6HR MIN TEMP:  47; 6HR MAX TEMP:  56;

MADISON *+     CLOUDY    54  48  82 W3        30.06S
SEYMOUR +      MOSUNNY   54  50  87 CALM      30.05R

$$




USA.gov is the U.S. government's official web portal to all federal, state and local government web resources and services.